SCP
-0 -0 -0 0 0 0 -0 -0 -0 -0 -0 -0 -0 -0 -0 -0 -0 0 -0 0 0 -0 0 -0 0 0 0 0 0 0 0 0 0 0 0 0 0 0 0 0 0 0 0 0 0 0 0 0 0
-0 -0 0 0 0 -0 -0 -0 -0 -0 -0 -0 0 -0 -0 -0 -0 -0 -0 0 -0 -0 -0 -0 -0 0 0 0 0 0 0 0 0 0 0 0 0 0 0 0 0 0 0 0 0 0 0 0 0
-0 -0 0 0 0 -0 -0 -0 -0 -0 -0 -0 0 -0 -0 -0 0 -0 -0 -0 -0 -0 -0 -0 0 0 0 0 0 0 0 0 0 0 0 0 0 0 0 0 0 0 0 0 0 0 0 0 0
0 0 0 0 -0 -0 -0 -0 -0 0 -0 0 -0 -0 -0 -0 0 -0 -0 -0 0 -0 -0 0 0 0 0 0 0 0 0 0 0 0 0 0 0 0 0 0 0 0 0 0 0 0 0 0 0
-0 0 -0 -0 -0 -0 -0 -0 -0 0 0 0 -0 -0 -0 -0 -0 -0 0 0 0 0 0 0 0 0 0 0 0 0 0 0 0 0 0 0 0 0 0 0 0 0 0 0 0 0 0 0 0
0 0 -0 -0 -0 0 -0 0 0 0 0 0 0 -0 -0 -0 -0 -0 -0 0 0 0 0 0 0 0 0 0 0 0 0 0 0 0 0 0 0 0 0 0 0 0 0 0 0 0 0 0 0
0 -0 -0 0 -0 -0 0 -0 -0 0 -0 0 0 0 -0 -0 -0 0 0 0 0 0 0 0 0 0 0 0 0 0 0 0 0 0 0 0 0 0 0 0 0 0 0 0 0 0 0 0 0
-0 0 -0 0 0 0 0 0 -0 -0 -0 0 -0 0 -0 -0 0 0 0 0 0 0 0 0 0 0 0 0 0 0 0 0 0 0 0 0 0 0 0 0 0 0 0 0 0 0 0 -0 -0
-0 -0 0 -0 0 0 0 0 0 0 0 0 -0 -0 -0 -0 0 0 0 0 0 0 0 0 0 0 0 0 0 0 0 0 0 0 0 0 0 0 0 0 0 0 0 0 0 -0 -0 -0 -0
-0 0 -0 -0 0 0 0 0 0 0 0 0 -0 -0 -0 0 0 0 0 0 0 0 0 0 0 0 0 0 0 0 0 0 0 0 0 0 0 0 0 0 0 0 0 0 0 -0 -0 0 0
0 -0 -0 -0 -0 -0 0 -0 0 0 0 0 0 -0 -0 0 0 0 0 0 0 0 0 0 0 0 0 0 0 0 0 0 0 0 0 0 0 0 0 0 0 0 0 0 0 0 0 0 0
0 -0 -0 -0 0 -0 -0 -0 0 -0 0 0 0 -0 -0 0 0 0 0 0 0 0 1 0 0 0 0 0 0 0 0 0 0 0 0 0 0 0 0 0 0 0 0 0 0 0 0 0 0
0 -0 0 0 0 -0 0 0 0 0 0 0 0 -0 0 0 0 0 0 0 -0 0 0 1 1 1 0 0 0 0 0 0 0 0 0 0 0 0 0 0 -0 0 0 0 0 0 0 0 0
-0 -0 0 0 0 0 0 0 0 0 0 0 0 -0 0 0 -0 -0 0 0 0 0 0 1 1 1 1 0 0 0 0 0 0 0 0 0 0 0 0 0 0 0 0 0 0 0 0 0 0
0 0 -0 0 0 0 0 0 0 0 0 0 0 0 0 0 0 0 0 0 0 0 0 1 2 2 1 1 0 0 0 0 0 0 0 0 0 0 0 0 0 0 0 -0 0 0 0 0 0
-0 -0 0 0 -0 0 0 0 0 0 0 0 0 0 0 0 0 0 0 0 0 0 0 1 1 1 2 1 1 0 0 0 0 0 0 0 0 0 0 0 0 0 0 0 0 0 0 0 0
-0 -0 0 0 0 0 0 0 0 0 0 0 0 0 0 0 0 0 0 0 0 0 0 1 1 1 1 1 1 0 0 0 0 0 0 0 0 0 0 0 0 0 0 0 0 0 0 0 0
0 -0 0 0 0 -0 0 0 0 0 0 0 0 0 0 0 0 0 0 0 0 0 0 1 1 1 2 1 1 1 1 1 0 0 0 0 0 0 0 0 0 0 0 0 0 0 0 -0 0
0 0 0 0 0 0 0 -0 0 0 0 0 0 0 0 0 0 0 0 0 0 0 1 1 1 1 1 1 1 1 1 0 0 0 0 0 0 0 0 0 0 0 0 0 0 0 0 0 0
-0 -0 0 0 0 0 -0 -0 -0 0 0 0 0 0 0 0 0 0 0 0 0 0 1 0 1 1 0 0 0 0 1 1 0 0 0 0 0 0 0 0 0 0 0 0 0 0 -0 0 0
-0 0 -0 -0 0 0 0 0 0 -0 0 0 0 0 0 0 0 0 0 1 0 1 1 1 1 1 0 0 0 1 1 1 0 0 0 0 0 0 0 0 0 0 0 0 0 0 0 -0 0
0 0 -0 -0 -0 0 0 0 0 0 0 0 0 0 0 0 0 0 0 1 1 1 1 1 1 2 1 0 1 1 0 0 0 0 0 0 0 0 0 0 0 0 0 0 0 0 0 0 0
-0 -0 -0 0 0 -0 0 -0 0 0 -0 0 0 0 0 0 0 0 0 0 1 2 1 1 2 2 1 0 1 0 0 0 0 0 0 0 0 0 -0 0 0 0 0 0 0 0 0 0 0
0 0 0 0 0 -0 -0 -0 0 0 0 0 0 0 0 0 0 0 0 0 1 2 2 1 1 2 1 1 1 1 0 0 0 0 0 0 0 0 0 -0 0 0 0 0 0 0 0 0 -0
0 -0 0 0 -0 0 -0 -0 0 -0 0 0 0 0 0 -0 0 0 0 0 0 0 2 1 1 1 1 1 1 1 0 0 0 0 0 0 0 0 0 0 0 -0 0 0 0 0 0 0 0
-0 0 -0 -0 0 0 0 0 -0 0 -0 0 0 0 0 0 0 0 0 0 0 0 1 1 1 1 1 1 1 1 1 1 0 1 0 0 0 0 0 0 0 0 0 0 0 0 0 0 0
0 0 0 -0 -0 0 0 0 -0 -0 -0 0 0 0 0 0 0 0 0 0 0 0 1 1 1 1 1 1 1 1 1 1 0 0 0 0 0 -0 0 0 0 0 0 0 0 0 0 0 0
0 0 0 0 0 0 0 0 0 -0 -0 0 0 0 0 0 0 0 0 0 0 0 0 1 0 1 1 1 1 1 1 1 1 1 0 0 -0 0 0 0 0 0 0 0 0 0 0 1 1
0 0 0 0 0 -0 0 0 0 0 0 0 0 0 0 0 0 0 0 0 0 0 0 1 0 1 1 1 0 0 0 1 1 1 0 0 0 0 0 0 0 0 0 0 0 0 0 0 0
0 0 0 -0 0 0 0 0 0 0 0 0 0 0 0 0 0 0 0 0 0 0 0 0 0 1 1 0 0 0 0 0 0 1 0 0 0 0 0 0 0 0 0 0 0 0 0 0 0
Wind_Speed_500mb
7 5 7 23 18 6 24 18 27 25 30 30 25 25 25 32 26 11 22 16 20 16 9 15 13 13 11 11 7 6 9 10 10 10 9 6 5 4 5 6 9 10 11 10 8 7 4 7 10
8 19 26 31 19 21 15 28 27 26 22 16 19 18 24 29 29 28 21 20 20 17 15 5 12 13 11 9 5 3 4 6 6 4 1 1 2 3 5 7 8 9 9 10 10 7 4 2 7
8 19 34 14 13 22 19 21 25 21 21 15 16 30 31 23 17 23 21 27 21 21 15 4 10 13 13 10 6 3 2 2 3 3 4 4 5 7 8 9 11 11 10 11 12 11 9 6 3
15 27 22 5 20 15 18 16 15 9 20 19 9 26 27 21 15 23 28 28 22 16 14 12 12 14 15 13 10 7 6 6 6 5 5 7 7 9 10 11 12 11 10 9 9 10 12 11 9
23 33 20 16 14 15 15 14 6 17 13 27 31 31 27 24 27 29 29 25 22 18 13 13 11 13 15 15 14 11 10 8 8 6 6 6 7 9 12 13 14 14 13 10 7 7 9 11 13
42 4 18 17 19 12 18 8 3 12 17 17 17 33 28 23 25 24 25 23 20 17 15 5 7 11 15 16 16 14 12 10 9 6 4 2 2 5 9 11 13 13 14 14 13 10 8 7 8
39 14 14 4 18 12 21 3 20 17 24 23 6 25 26 22 22 23 23 21 19 17 18 13 11 7 11 14 15 14 12 10 7 4 3 1 2 7 10 11 13 15 15 15 13 13 12 8 4
32 11 17 11 12 4 23 1 14 23 21 14 7 19 29 29 25 24 23 21 20 18 16 12 15 10 8 5 10 12 11 9 9 7 5 5 10 21 16 10 10 17 15 14 12 12 12 13 8
22 14 2 20 6 5 24 5 12 7 16 19 18 20 32 27 28 26 24 22 21 21 20 17 14 14 11 12 4 5 9 10 11 10 13 9 9 10 9 12 17 15 13 11 13 15 17 17 18
23 12 33 21 19 24 10 10 17 4 15 24 26 24 30 31 28 25 23 22 23 24 22 21 20 19 17 14 17 9 2 8 3 2 4 8 4 6 8 7 20 15 20 17 24 23 17 20 6
12 25 23 27 21 18 23 5 11 17 17 15 31 28 30 27 22 19 17 17 20 20 22 23 22 23 21 16 14 10 9 9 6 4 4 6 3 4 8 9 16 15 21 9 15 15 11 4 1
18 21 21 24 13 8 21 12 22 18 15 10 22 24 23 19 17 15 13 20 16 22 24 26 25 26 24 19 18 18 12 8 6 8 5 4 4 4 2 4 5 7 7 9 9 7 8 2 4
10 16 10 11 8 17 6 15 12 17 7 9 15 20 19 15 9 9 10 15 19 21 24 28 31 32 28 27 21 20 14 10 11 10 9 4 3 2 1 5 3 5 5 9 8 6 3 2 3
9 7 8 3 10 10 13 17 6 15 9 14 17 16 12 4 4 5 9 16 20 25 28 32 33 35 29 27 28 19 17 13 12 11 12 7 5 3 2 4 5 6 6 7 6 5 1 2 3
6 29 23 19 17 6 11 18 23 11 12 13 16 14 10 8 5 1 8 13 15 16 22 27 32 33 33 30 28 19 13 11 15 14 20 11 8 9 8 6 4 9 8 7 8 4 3 1 1
24 39 18 27 7 15 16 19 18 15 19 13 12 12 13 7 8 8 4 7 12 10 9 23 27 32 34 29 27 21 17 15 17 17 17 15 13 12 6 8 10 12 5 6 6 3 4 3 4
62 26 18 23 24 6 2 24 18 10 12 9 17 14 13 15 10 8 1 6 8 11 11 12 29 31 32 32 26 24 20 19 18 20 20 21 19 17 8 7 11 9 8 7 4 5 6 6 6
26 20 11 4 18 17 8 13 25 15 11 14 13 18 14 13 11 9 2 2 5 9 11 12 23 32 36 30 27 22 21 20 17 22 23 25 20 20 17 8 14 8 9 8 8 5 6 7 7
21 23 24 28 16 17 15 14 15 27 17 16 18 18 17 10 9 12 6 2 3 5 11 16 23 30 32 33 29 27 24 19 17 24 27 28 22 21 20 12 14 10 10 12 8 6 8 5 7
30 33 19 6 11 14 28 30 23 14 12 15 12 16 17 13 12 15 10 4 5 6 9 16 21 26 30 26 24 22 22 20 15 22 27 29 26 23 22 17 14 16 12 16 13 11 8 8 8
28 16 28 32 21 36 13 6 7 21 13 11 11 10 9 3 6 16 18 15 10 10 10 15 21 25 27 26 25 28 24 24 16 24 26 27 29 26 25 22 17 19 17 15 16 13 14 14 9
25 21 32 40 26 19 25 12 8 17 11 14 20 19 12 5 4 4 12 16 18 16 17 16 19 23 23 29 25 28 20 19 14 19 22 24 26 26 26 26 23 22 17 16 19 18 19 18 15
32 30 35 36 31 31 21 19 21 57 14 13 11 13 9 4 3 10 13 14 13 14 14 18 21 22 21 24 31 26 26 22 24 19 24 28 24 26 26 28 27 25 23 20 26 20 23 20 20
21 25 35 32 28 13 22 25 17 11 18 17 17 18 9 4 6 11 11 10 9 13 14 18 23 24 21 22 22 34 25 22 22 17 26 24 22 26 31 27 31 32 26 24 23 23 25 26 26
16 29 6 9 16 8 35 22 16 43 15 16 12 18 12 13 17 23 27 26 23 26 8 15 21 23 20 20 22 24 24 26 29 24 25 26 26 26 29 27 35 32 31 26 28 28 28 30 29
28 19 18 36 20 14 22 10 21 23 21 13 13 12 12 17 24 23 21 24 25 23 19 16 16 18 18 20 22 24 26 23 21 22 27 27 27 32 29 32 32 37 32 32 31 34 31 32 33
13 18 22 23 33 24 5 7 13 24 21 14 14 15 12 15 16 18 18 22 24 24 21 17 13 13 16 22 24 25 29 27 22 23 27 29 27 23 22 27 35 31 31 32 33 32 31 35 37
20 22 22 9 10 28 14 24 6 48 26 16 17 14 10 9 12 19 19 21 25 27 23 21 17 13 15 19 17 24 23 21 25 23 27 26 33 32 33 29 31 30 31 30 31 34 36 40 42
10 7 22 12 17 23 24 6 28 53 16 15 14 11 8 9 21 19 19 22 23 27 27 23 17 14 15 22 15 14 17 22 24 25 26 23 25 26 27 27 28 31 34 34 39 40 36 34 36
17 22 23 18 7 16 18 10 19 12 8 15 13 11 12 14 17 20 21 21 21 27 28 24 19 15 15 16 16 16 17 19 24 27 23 24 26 22 21 25 26 26 29 27 31 27 29 32 38
Wind_Direction_500mb
330 356 329 265 248 114 62 87 63 44 75 58 49 46 71 34 12 50 124 108 110 111 118 72 61 81 120 137 154 187 228 272 290 300 303 306 314 333 351 342 340 339 343 340 341 350 336 301 299
44 274 265 259 252 84 61 75 66 64 83 108 61 56 59 55 69 109 122 119 122 116 101 116 57 80 95 108 133 157 231 276 296 295 263 34 48 25 0 357 0 3 3 0 358 4 1 298 294
228 260 268 260 14 63 90 87 86 84 56 31 105 53 45 94 96 93 120 133 133 114 129 97 74 85 89 93 91 67 1 351 25 53 51 70 65 51 40 34 35 32 31 24 16 14 21 26 344
284 244 243 10 92 28 93 93 92 143 117 67 21 98 74 81 101 118 128 134 117 121 133 91 87 87 83 78 72 60 49 61 73 65 65 77 66 53 39 31 26 25 24 24 15 11 8 10 8
257 263 253 121 102 64 94 70 340 121 77 44 70 77 91 95 113 122 133 134 133 127 148 112 97 98 92 86 81 83 91 102 91 88 91 72 46 32 23 16 13 12 4 2 3 357 355 356 2
281 281 275 96 98 130 92 91 193 72 97 108 81 102 96 126 129 133 136 139 140 138 143 206 129 108 95 89 85 82 89 95 99 95 92 93 50 15 358 352 355 350 352 347 344 347 343 332 355
276 307 3 18 115 111 76 339 59 27 57 53 116 97 125 146 143 149 146 154 151 157 158 151 155 124 110 91 83 76 79 89 79 87 102 113 1 354 342 328 336 337 333 337 339 344 353 349 18
286 259 210 99 58 154 95 162 23 42 70 73 323 117 142 138 151 156 156 161 167 169 173 174 183 180 169 114 75 73 74 86 73 53 40 40 34 15 9 341 294 320 321 328 335 348 6 21 32
268 359 11 58 49 78 101 224 65 42 118 73 59 80 120 146 153 158 164 171 179 188 189 188 186 203 175 207 169 96 76 62 46 24 27 48 15 329 309 296 286 308 313 343 2 8 43 37 32
284 345 36 26 7 354 76 302 101 154 134 130 101 107 130 147 157 167 178 189 195 200 201 200 196 198 189 191 245 169 255 6 352 236 257 35 227 195 201 324 353 0 8 24 10 19 37 19 314
315 27 9 56 31 340 25 50 44 50 355 136 128 137 146 155 166 178 202 219 213 225 224 216 209 202 204 188 210 201 217 219 229 215 140 276 171 290 6 313 354 338 352 358 342 332 352 310 123
285 67 19 23 35 9 37 23 88 32 70 77 117 147 153 168 172 221 226 214 235 245 228 234 223 216 199 198 202 215 197 220 240 245 282 326 58 322 179 239 321 345 296 327 327 319 283 341 318
283 54 44 53 64 20 15 52 57 86 94 135 148 153 167 184 203 193 264 287 293 271 246 236 227 220 209 206 215 208 204 234 229 256 256 219 188 229 2 293 319 318 329 326 329 323 275 236 294
25 0 62 36 65 106 255 111 213 104 141 154 164 174 174 185 236 297 306 311 300 279 260 242 229 222 218 215 214 211 209 224 235 242 251 235 170 240 266 298 290 297 314 323 335 287 162 265 218
247 239 192 108 60 84 286 185 91 113 166 155 184 190 209 207 192 195 25 11 337 292 263 236 223 217 218 223 227 215 223 237 241 238 234 222 208 277 188 285 306 291 297 327 332 333 319 332 300
259 325 126 95 30 95 274 94 111 149 178 157 180 182 200 173 206 140 80 19 351 344 264 218 212 212 218 217 222 215 226 230 241 232 240 234 237 226 285 306 294 266 295 307 304 275 273 253 241
324 262 40 103 73 320 255 109 130 147 134 151 181 175 174 177 173 165 60 0 23 44 46 191 191 199 209 211 216 211 221 232 244 231 235 235 225 238 237 262 278 289 278 286 273 273 269 261 269
241 352 348 12 55 324 11 25 124 174 188 159 164 179 190 208 180 177 179 17 53 88 106 160 176 189 198 206 211 217 224 229 238 229 228 230 228 235 244 261 257 266 269 266 244 240 261 245 275
307 306 19 328 95 299 61 311 99 168 177 178 181 177 204 226 175 197 194 127 70 118 145 164 181 195 195 198 204 211 220 226 230 222 227 227 225 234 240 255 265 274 252 244 260 269 286 230 286
287 302 333 247 348 294 353 43 14 160 155 171 190 186 196 204 203 216 231 227 185 218 182 175 191 202 198 204 208 219 226 228 232 226 227 228 230 230 240 244 250 255 245 267 253 248 234 257 264
298 346 316 317 311 73 262 214 266 120 180 112 125 189 177 232 240 210 236 240 228 244 241 209 193 203 199 200 206 214 217 216 242 226 224 230 228 227 238 239 235 244 247 252 267 251 243 261 246
294 347 313 301 290 302 228 118 180 268 146 229 175 158 134 130 203 268 267 255 254 252 237 232 213 208 206 207 218 221 224 234 239 235 230 228 226 228 229 241 237 236 240 249 256 256 240 266 266
302 321 301 308 291 284 22 298 56 326 142 133 116 119 122 160 57 341 334 328 284 255 253 238 224 222 210 227 206 235 237 253 250 242 229 225 231 233 229 231 232 234 242 243 252 243 254 248 261
306 279 42 351 351 306 207 250 140 169 133 118 109 93 107 51 112 358 358 336 300 261 254 247 236 229 235 236 244 227 236 249 253 248 234 235 234 237 239 222 231 236 240 246 253 259 255 256 244
256 273 125 258 255 165 281 339 160 222 106 103 119 110 89 14 30 14 9 355 352 353 283 279 247 241 242 242 245 247 252 247 255 249 244 236 235 233 243 236 227 239 247 242 248 256 256 259 251
306 337 302 311 331 349 163 206 231 129 107 139 143 108 51 27 24 19 20 6 4 357 348 322 274 261 262 265 261 253 255 259 256 269 234 245 239 247 233 237 245 243 242 252 249 246 249 260 259
337 283 337 310 315 283 102 190 61 129 121 170 115 84 62 50 26 16 27 11 4 358 357 350 323 291 280 281 270 257 258 256 247 252 246 238 236 244 236 236 246 249 251 252 251 257 253 256 258
260 308 285 93 226 273 181 94 165 301 152 133 129 110 81 25 29 13 16 19 7 4 5 1 348 335 311 290 276 270 283 265 267 247 243 237 231 234 238 244 251 247 246 253 251 253 260 255 266
254 256 261 293 316 10 346 325 195 210 186 125 117 99 85 16 19 11 15 6 3 2 2 1 359 351 327 316 336 326 299 281 285 266 247 251 234 237 249 254 259 255 259 243 242 248 250 257 267
281 298 327 306 0 170 191 257 127 341 163 152 125 125 46 2 18 8 3 2 0 357 356 356 358 355 347 337 327 322 314 299 285 269 258 242 254 244 254 259 263 263 259 258 258 260 265 268 273
Wind_Speed_850mb
7 5 7 23 18 6 24 18 27 25 30 30 25 25 25 32 26 11 22 16 20 16 9 15 13 13 11 11 7 6 9 10 10 10 9 6 5 4 5 6 9 10 11 10 8 7 4 7 10
8 19 26 31 19 21 15 28 27 26 22 16 19 18 24 29 29 28 21 20 20 17 15 5 12 13 11 9 5 3 4 6 6 4 1 1 2 3 5 7 8 9 9 10 10 7 4 2 7
8 19 34 14 13 22 19 21 25 21 21 15 16 30 31 23 17 23 21 27 21 21 15 4 10 13 13 10 6 3 2 2 3 3 4 4 5 7 8 9 11 11 10 11 12 11 9 6 3
15 27 22 5 20 15 18 16 15 9 20 19 9 26 27 21 15 23 28 28 22 16 14 12 12 14 15 13 10 7 6 6 6 5 5 7 7 9 10 11 12 11 10 9 9 10 12 11 9
23 33 20 16 14 15 15 14 6 17 13 27 31 31 27 24 27 29 29 25 22 18 13 13 11 13 15 15 14 11 10 8 8 6 6 6 7 9 12 13 14 14 13 10 7 7 9 11 13
42 4 18 17 19 12 18 8 3 12 17 17 17 33 28 23 25 24 25 23 20 17 15 5 7 11 15 16 16 14 12 10 9 6 4 2 2 5 9 11 13 13 14 14 13 10 8 7 8
39 14 14 4 18 12 21 3 20 17 24 23 6 25 26 22 22 23 23 21 19 17 18 13 11 7 11 14 15 14 12 10 7 4 3 1 2 7 10 11 13 15 15 15 13 13 12 8 4
32 11 17 11 12 4 23 1 14 23 21 14 7 19 29 29 25 24 23 21 20 18 16 12 15 10 8 5 10 12 11 9 9 7 5 5 10 21 16 10 10 17 15 14 12 12 12 13 8
22 14 2 20 6 5 24 5 12 7 16 19 18 20 32 27 28 26 24 22 21 21 20 17 14 14 11 12 4 5 9 10 11 10 13 9 9 10 9 12 17 15 13 11 13 15 17 17 18
23 12 33 21 19 24 10 10 17 4 15 24 26 24 30 31 28 25 23 22 23 24 22 21 20 19 17 14 17 9 2 8 3 2 4 8 4 6 8 7 20 15 20 17 24 23 17 20 6
12 25 23 27 21 18 23 5 11 17 17 15 31 28 30 27 22 19 17 17 20 20 22 23 22 23 21 16 14 10 9 9 6 4 4 6 3 4 8 9 16 15 21 9 15 15 11 4 1
18 21 21 24 13 8 21 12 22 18 15 10 22 24 23 19 17 15 13 20 16 22 24 26 25 26 24 19 18 18 12 8 6 8 5 4 4 4 2 4 5 7 7 9 9 7 8 2 4
10 16 10 11 8 17 6 15 12 17 7 9 15 20 19 15 9 9 10 15 19 21 24 28 31 32 28 27 21 20 14 10 11 10 9 4 3 2 1 5 3 5 5 9 8 6 3 2 3
9 7 8 3 10 10 13 17 6 15 9 14 17 16 12 4 4 5 9 16 20 25 28 32 33 35 29 27 28 19 17 13 12 11 12 7 5 3 2 4 5 6 6 7 6 5 1 2 3
6 29 23 19 17 6 11 18 23 11 12 13 16 14 10 8 5 1 8 13 15 16 22 27 32 33 33 30 28 19 13 11 15 14 20 11 8 9 8 6 4 9 8 7 8 4 3 1 1
24 39 18 27 7 15 16 19 18 15 19 13 12 12 13 7 8 8 4 7 12 10 9 23 27 32 34 29 27 21 17 15 17 17 17 15 13 12 6 8 10 12 5 6 6 3 4 3 4
62 26 18 23 24 6 2 24 18 10 12 9 17 14 13 15 10 8 1 6 8 11 11 12 29 31 32 32 26 24 20 19 18 20 20 21 19 17 8 7 11 9 8 7 4 5 6 6 6
26 20 11 4 18 17 8 13 25 15 11 14 13 18 14 13 11 9 2 2 5 9 11 12 23 32 36 30 27 22 21 20 17 22 23 25 20 20 17 8 14 8 9 8 8 5 6 7 7
21 23 24 28 16 17 15 14 15 27 17 16 18 18 17 10 9 12 6 2 3 5 11 16 23 30 32 33 29 27 24 19 17 24 27 28 22 21 20 12 14 10 10 12 8 6 8 5 7
30 33 19 6 11 14 28 30 23 14 12 15 12 16 17 13 12 15 10 4 5 6 9 16 21 26 30 26 24 22 22 20 15 22 27 29 26 23 22 17 14 16 12 16 13 11 8 8 8
28 16 28 32 21 36 13 6 7 21 13 11 11 10 9 3 6 16 18 15 10 10 10 15 21 25 27 26 25 28 24 24 16 24 26 27 29 26 25 22 17 19 17 15 16 13 14 14 9
25 21 32 40 26 19 25 12 8 17 11 14 20 19 12 5 4 4 12 16 18 16 17 16 19 23 23 29 25 28 20 19 14 19 22 24 26 26 26 26 23 22 17 16 19 18 19 18 15
32 30 35 36 31 31 21 19 21 57 14 13 11 13 9 4 3 10 13 14 13 14 14 18 21 22 21 24 31 26 26 22 24 19 24 28 24 26 26 28 27 25 23 20 26 20 23 20 20
21 25 35 32 28 13 22 25 17 11 18 17 17 18 9 4 6 11 11 10 9 13 14 18 23 24 21 22 22 34 25 22 22 17 26 24 22 26 31 27 31 32 26 24 23 23 25 26 26
16 29 6 9 16 8 35 22 16 43 15 16 12 18 12 13 17 23 27 26 23 26 8 15 21 23 20 20 22 24 24 26 29 24 25 26 26 26 29 27 35 32 31 26 28 28 28 30 29
28 19 18 36 20 14 22 10 21 23 21 13 13 12 12 17 24 23 21 24 25 23 19 16 16 18 18 20 22 24 26 23 21 22 27 27 27 32 29 32 32 37 32 32 31 34 31 32 33
13 18 22 23 33 24 5 7 13 24 21 14 14 15 12 15 16 18 18 22 24 24 21 17 13 13 16 22 24 25 29 27 22 23 27 29 27 23 22 27 35 31 31 32 33 32 31 35 37
20 22 22 9 10 28 14 24 6 48 26 16 17 14 10 9 12 19 19 21 25 27 23 21 17 13 15 19 17 24 23 21 25 23 27 26 33 32 33 29 31 30 31 30 31 34 36 40 42
10 7 22 12 17 23 24 6 28 53 16 15 14 11 8 9 21 19 19 22 23 27 27 23 17 14 15 22 15 14 17 22 24 25 26 23 25 26 27 27 28 31 34 34 39 40 36 34 36
17 22 23 18 7 16 18 10 19 12 8 15 13 11 12 14 17 20 21 21 21 27 28 24 19 15 15 16 16 16 17 19 24 27 23 24 26 22 21 25 26 26 29 27 31 27 29 32 38
Wind_Direction_850mb
330 356 329 265 248 114 62 87 63 44 75 58 49 46 71 34 12 50 124 108 110 111 118 72 61 81 120 137 154 187 228 272 290 300 303 306 314 333 351 342 340 339 343 340 341 350 336 301 299
44 274 265 259 252 84 61 75 66 64 83 108 61 56 59 55 69 109 122 119 122 116 101 116 57 80 95 108 133 157 231 276 296 295 263 34 48 25 0 357 0 3 3 0 358 4 1 298 294
228 260 268 260 14 63 90 87 86 84 56 31 105 53 45 94 96 93 120 133 133 114 129 97 74 85 89 93 91 67 1 351 25 53 51 70 65 51 40 34 35 32 31 24 16 14 21 26 344
284 244 243 10 92 28 93 93 92 143 117 67 21 98 74 81 101 118 128 134 117 121 133 91 87 87 83 78 72 60 49 61 73 65 65 77 66 53 39 31 26 25 24 24 15 11 8 10 8
257 263 253 121 102 64 94 70 340 121 77 44 70 77 91 95 113 122 133 134 133 127 148 112 97 98 92 86 81 83 91 102 91 88 91 72 46 32 23 16 13 12 4 2 3 357 355 356 2
281 281 275 96 98 130 92 91 193 72 97 108 81 102 96 126 129 133 136 139 140 138 143 206 129 108 95 89 85 82 89 95 99 95 92 93 50 15 358 352 355 350 352 347 344 347 343 332 355
276 307 3 18 115 111 76 339 59 27 57 53 116 97 125 146 143 149 146 154 151 157 158 151 155 124 110 91 83 76 79 89 79 87 102 113 1 354 342 328 336 337 333 337 339 344 353 349 18
286 259 210 99 58 154 95 162 23 42 70 73 323 117 142 138 151 156 156 161 167 169 173 174 183 180 169 114 75 73 74 86 73 53 40 40 34 15 9 341 294 320 321 328 335 348 6 21 32
268 359 11 58 49 78 101 224 65 42 118 73 59 80 120 146 153 158 164 171 179 188 189 188 186 203 175 207 169 96 76 62 46 24 27 48 15 329 309 296 286 308 313 343 2 8 43 37 32
284 345 36 26 7 354 76 302 101 154 134 130 101 107 130 147 157 167 178 189 195 200 201 200 196 198 189 191 245 169 255 6 352 236 257 35 227 195 201 324 353 0 8 24 10 19 37 19 314
315 27 9 56 31 340 25 50 44 50 355 136 128 137 146 155 166 178 202 219 213 225 224 216 209 202 204 188 210 201 217 219 229 215 140 276 171 290 6 313 354 338 352 358 342 332 352 310 123
285 67 19 23 35 9 37 23 88 32 70 77 117 147 153 168 172 221 226 214 235 245 228 234 223 216 199 198 202 215 197 220 240 245 282 326 58 322 179 239 321 345 296 327 327 319 283 341 318
283 54 44 53 64 20 15 52 57 86 94 135 148 153 167 184 203 193 264 287 293 271 246 236 227 220 209 206 215 208 204 234 229 256 256 219 188 229 2 293 319 318 329 326 329 323 275 236 294
25 0 62 36 65 106 255 111 213 104 141 154 164 174 174 185 236 297 306 311 300 279 260 242 229 222 218 215 214 211 209 224 235 242 251 235 170 240 266 298 290 297 314 323 335 287 162 265 218
247 239 192 108 60 84 286 185 91 113 166 155 184 190 209 207 192 195 25 11 337 292 263 236 223 217 218 223 227 215 223 237 241 238 234 222 208 277 188 285 306 291 297 327 332 333 319 332 300
259 325 126 95 30 95 274 94 111 149 178 157 180 182 200 173 206 140 80 19 351 344 264 218 212 212 218 217 222 215 226 230 241 232 240 234 237 226 285 306 294 266 295 307 304 275 273 253 241
324 262 40 103 73 320 255 109 130 147 134 151 181 175 174 177 173 165 60 0 23 44 46 191 191 199 209 211 216 211 221 232 244 231 235 235 225 238 237 262 278 289 278 286 273 273 269 261 269
241 352 348 12 55 324 11 25 124 174 188 159 164 179 190 208 180 177 179 17 53 88 106 160 176 189 198 206 211 217 224 229 238 229 228 230 228 235 244 261 257 266 269 266 244 240 261 245 275
307 306 19 328 95 299 61 311 99 168 177 178 181 177 204 226 175 197 194 127 70 118 145 164 181 195 195 198 204 211 220 226 230 222 227 227 225 234 240 255 265 274 252 244 260 269 286 230 286
287 302 333 247 348 294 353 43 14 160 155 171 190 186 196 204 203 216 231 227 185 218 182 175 191 202 198 204 208 219 226 228 232 226 227 228 230 230 240 244 250 255 245 267 253 248 234 257 264
298 346 316 317 311 73 262 214 266 120 180 112 125 189 177 232 240 210 236 240 228 244 241 209 193 203 199 200 206 214 217 216 242 226 224 230 228 227 238 239 235 244 247 252 267 251 243 261 246
294 347 313 301 290 302 228 118 180 268 146 229 175 158 134 130 203 268 267 255 254 252 237 232 213 208 206 207 218 221 224 234 239 235 230 228 226 228 229 241 237 236 240 249 256 256 240 266 266
302 321 301 308 291 284 22 298 56 326 142 133 116 119 122 160 57 341 334 328 284 255 253 238 224 222 210 227 206 235 237 253 250 242 229 225 231 233 229 231 232 234 242 243 252 243 254 248 261
306 279 42 351 351 306 207 250 140 169 133 118 109 93 107 51 112 358 358 336 300 261 254 247 236 229 235 236 244 227 236 249 253 248 234 235 234 237 239 222 231 236 240 246 253 259 255 256 244
256 273 125 258 255 165 281 339 160 222 106 103 119 110 89 14 30 14 9 355 352 353 283 279 247 241 242 242 245 247 252 247 255 249 244 236 235 233 243 236 227 239 247 242 248 256 256 259 251
306 337 302 311 331 349 163 206 231 129 107 139 143 108 51 27 24 19 20 6 4 357 348 322 274 261 262 265 261 253 255 259 256 269 234 245 239 247 233 237 245 243 242 252 249 246 249 260 259
337 283 337 310 315 283 102 190 61 129 121 170 115 84 62 50 26 16 27 11 4 358 357 350 323 291 280 281 270 257 258 256 247 252 246 238 236 244 236 236 246 249 251 252 251 257 253 256 258
260 308 285 93 226 273 181 94 165 301 152 133 129 110 81 25 29 13 16 19 7 4 5 1 348 335 311 290 276 270 283 265 267 247 243 237 231 234 238 244 251 247 246 253 251 253 260 255 266
254 256 261 293 316 10 346 325 195 210 186 125 117 99 85 16 19 11 15 6 3 2 2 1 359 351 327 316 336 326 299 281 285 266 247 251 234 237 249 254 259 255 259 243 242 248 250 257 267
281 298 327 306 0 170 191 257 127 341 163 152 125 125 46 2 18 8 3 2 0 357 356 356 358 355 347 337 327 322 314 299 285 269 258 242 254 244 254 259 263 263 259 258 258 260 265 268 273